Volver al catálogo

STARLINK-35021

ActivoComunicacionesSSO
NORAD 65282·PAYLOAD·🇺🇸 United States

Lanzado Aug 22, 2025 desde Vandenberg Space Force Base

Loading…

Próximos Pases (próximas 24 horas)

TLE

ActualizadoSource: CelesTrak SupGP

Época: Sep 14, 2026, 21:31 UTC

1 65282C 25184K   26257.89701389  .00004591  00000+0  14257-3 0  2577
2 65282  97.2837 305.9079 0000990  87.8320 253.4402 15.33426338    19

Sigue STARLINK-35021 en tiempo real con AllMySat

Download on the App Store